Rbgn^[z[y[W
メイン
   新天体発見情報
     Comet C/2024 G6 (ATLAS)
投稿するにはまず登録を

スレッド表示 | 新しいものから 前のトピック | 次のトピック | 下へ
投稿者 スレッド
佐藤裕久
投稿日時: 2024-5-24 14:38
モデレータ
登録日: 2005-6-12
居住地: 日本
投稿: 2585
オンライン
Comet C/2024 G6 (ATLAS)

A. Fitzsimmonsの通報によると、4月10日UT、チリ Rio Hurtadoにある小惑星地球衝突最終警報システム
Asteroid Terrestrial-impact Last Alert System (ATLAS)調査プログラムのコースに0.5-m Schmidt 反
射望遠鏡で得た、CCD画像から彗星を発見した。3枚の110-秒露出では、4".6のシーイングで頭部は5".9
(半値全幅:FWHM)で、p.a. 120°にかすかに尾のようなものが13"伸びている。
しかし、視野は非常に混みあっており、"背景の混濁は否定できない"と付け加えた。
小惑星センターのPCCP webpageに公表後、S. Deen (Simi Valley,カリフォルニア州: 4月16.1-16.3日UT, 
チリ Rio Hurtado, 0.43-m 反射望遠鏡, 4枚の600-秒露出による、1".5のシーイングで2"(半値全幅:FWHM)
の非常に集光したコマが見え、p.a.160-170°に4".5のかすかな尾らしいものがあった。V光度は18.7-18.8
等)や佐藤英貴氏(東京都文京区, 4月16.8日、60-秒露出10枚のスタック, 0.51-m f/6.8 アストログラ
フ, Siding Spring, NSW, オーストラリア, 遠隔操作:強く集光した8" のコマが見えるが尾はなかった。
4".3の円形範囲で測定した光度は19.0等であった)らCCD位置観測者によって彗星状と観測された。

彗星機能の報告は次のとおり、

OC   Date        Reporter           Coma    Tail    PA          Exposures
X09  2024-04-16  S. Deen            3"        4".5  160-170
Q62  2024-04-16  H. Sato            8"                            10x60s
M21  2024-04-19  A. Aletti          5"
X07  2024-04-20  T. Prystavski      6".8      8".2  322            5x120s

発見位置は次のとおり、

     2024 UT             R.A. (2000) Decl.       Mag.
     Apr. 10.34864   18 17 04.11   -47 41 51.7   19.1
          10.37172   18 17 03.53   -47 41 52.0   18.8
          10.39467   18 17 02.98   -47 41 51.8   18.8

MPCの楕円軌道要素、位置推算表は次のとおり、

Orbital elements:
    C/2024 G6 (ATLAS)                                                           
Epoch 2026 Feb. 9.0 TT = JDT 2461080.5                                          
T 2026 Feb. 20.18888 TT                                 Rudenko                 
q   6.4363686            (2000.0)            P               Q                  
z  +0.0000121      Peri.   23.33229     -0.48937579     -0.31057681             
 +/-0.0000000      Node   250.95272     -0.87205286     +0.16792852             
e   0.9999223      Incl.  120.44740     -0.00592800     +0.93559717             
From 41 observations 2024 Apr. 10-May 4, mean residual 0".6.                    
                                                                                
Ephemeris:
Date    TT    R. A. (2000) Decl.     Delta      r    Elong.  Phase   m1
2024 04 08    18 17 59.2 -47 40 54   7.5849  7.8813   103.6     7.1  18.9
...
2024 04 23    18 10 42.4 -47 44 48   7.3033  7.8260   118.0     6.5  18.8
...
2024 05 01    18 05 28.5 -47 43 45   7.1662  7.7967   125.7     6.0  18.7
...
2024 05 07    18 00 58.1 -47 40 46   7.0714  7.7749   131.3     5.6  18.7
2024 05 08    18 00 10.3 -47 40 03   7.0564  7.7713   132.3     5.5  18.6
2024 05 09    17 59 21.8 -47 39 17   7.0416  7.7677   133.2     5.4  18.6
...
2024 05 15    17 54 15.5 -47 33 05   6.9579  7.7460   138.7     4.9  18.6
...
2024 05 23    17 46 52.6 -47 20 21   6.8611  7.7174   145.6     4.3  18.6
...
2024 06 07    17 31 50.6 -46 40 34   6.7306  7.6642   155.3     3.2  18.5

(MPEC 2024-J134、CBET 5392)

スレッド表示 | 新しいものから 前のトピック | 次のトピック | トップ

投稿するにはまず登録を
 
© 1999 Tsutomu Seki.